Back to catalog

STARLINK-31658

AliveCommunicationsVLEO
NORAD 59513·PAYLOAD·🇺🇸 United States

Launched Apr 17, 2024 from Cape Canaveral Space Force Station

Loading…

Next Passes (next 24 hours)

TLE

FreshSource: CelesTrak SupGP

Epoch: Sep 14, 2026, 20:51 UTC

1 59513C 24073C   26257.86923611 -.00013535  00000+0 -49015-3 0  2574
2 59513  43.0029 289.3625 0001455 294.1174  33.8859 15.27590520    14

Track STARLINK-31658 in real time with AllMySat

Download on the App Store